| time (UTC) | temp F | wind direction | speed MPH | gust MPH | rain 1hr in | rain 24hr in | rain mn in | humidity % | barometer mb |
| 20260505124600 | 55 | 279 | 0.0 | 0.0 | 0.00 | 0.03 | 0.03 | 93 | 1013.4 |
| 20260505123052 | 56 | 279 | 0.0 | 0.0 | 0.00 | 0.03 | 0.03 | 93 | 1013.5 |
| 20260505121550 | 56 | 279 | 0.0 | 0.0 | 0.00 | 0.03 | 0.03 | 93 | 1013.4 |
| 20260505120052 | 56 | 279 | 0.0 | 0.0 | 0.00 | 0.03 | 0.03 | 93 | 1013.3 |
| 20260505114548 | 57 | 279 | 0.0 | 0.0 | 0.00 | 0.03 | 0.03 | 93 | 1013.3 |
| 20260505113047 | 57 | 279 | 0.0 | 0.0 | 0.00 | 0.03 | 0.03 | 93 | 1013.2 |
| 20260505111547 | 57 | 279 | 0.0 | 4.0 | 0.00 | 0.03 | 0.03 | 93 | 1013.4 |
| 20260505101544 | 57 | 36 | 0.0 | 0.0 | 0.01 | 0.03 | 0.03 | 93 | 1013.5 |
| 20260505100042 | 57 | 36 | 0.0 | 4.0 | 0.03 | 0.03 | 0.03 | 92 | 1013.4 |
| 20260505094539 | 57 | 28 | 2.0 | 5.0 | 0.03 | 0.03 | 0.03 | 92 | 1013.5 |
| 20260505093036 | 57 | 323 | 0.0 | 3.0 | 0.03 | 0.03 | 0.03 | 92 | 1013.9 |
| 20260505091537 | 58 | 310 | 1.0 | 4.0 | 0.01 | 0.01 | 0.01 | 91 | 1014.0 |
| 20260505090036 | 58 | 313 | 1.0 | 5.0 | 0.00 | 0.00 | 0.00 | 90 | 1014.1 |
| 20260505084540 | 58 | 327 | 2.0 | 5.0 | 0.00 | 0.00 | 0.00 | 89 | 1014.2 |
| 20260505083030 | 58 | 109 | 0.0 | 0.0 | 0.00 | 0.00 | 0.00 | 88 | 1014.2 |
| 20260505081528 | 58 | 109 | 0.0 | 2.0 | 0.00 | 0.00 | 0.00 | 88 | 1014.2 |
| 20260505080026 | 58 | 106 | 1.0 | 3.0 | 0.00 | 0.00 | 0.00 | 87 | 1014.4 |
| 20260505074524 | 59 | 118 | 0.0 | 0.0 | 0.00 | 0.00 | 0.00 | 89 | 1014.6 |
| 20260505073033 | 59 | 292 | 0.0 | 0.0 | 0.00 | 0.00 | 0.00 | 86 | 1014.7 |
| 20260505071519 | 59 | 292 | 0.0 | 0.0 | 0.00 | 0.00 | 0.00 | 86 | 1014.7 |
| 20260505070026 | 59 | 292 | 0.0 | 0.0 | 0.00 | 0.00 | 0.00 | 86 | 1014.8 |
| 20260505064514 | 59 | 292 | 0.0 | 0.0 | 0.00 | 0.00 | 0.00 | 84 | 1014.7 |
| 20260505063014 | 59 | 292 | 0.0 | 0.0 | 0.00 | 0.00 | 0.00 | 84 | 1014.6 |
| 20260505061519 | 59 | 292 | 0.0 | 0.0 | 0.00 | 0.00 | 0.00 | 84 | 1014.6 |
| 20260505060012 | 59 | 292 | 0.0 | 4.0 | 0.00 | 0.00 | 0.00 | 84 | 1014.8 |
| 20260505054511 | 60 | 284 | 3.0 | 7.0 | 0.00 | 0.00 | 0.00 | 83 | 1015.0 |
| 20260505053111 | 60 | 278 | 2.0 | 8.0 | 0.00 | 0.00 | 0.00 | 82 | 1014.9 |
| 20260505051515 | 60 | 271 | 2.0 | 6.0 | 0.00 | 0.00 | 0.00 | 83 | 1015.0 |
| 20260505041506 | 59 | 279 | 0.0 | 8.0 | 0.00 | 0.00 | 0.00 | 86 | 1015.2 |
| 20260505040006 | 59 | 259 | 6.0 | 10.0 | 0.00 | 0.00 | 0.00 | 86 | 1015.0 |
| 20260505034501 | 59 | 276 | 6.0 | 11.0 | 0.00 | 0.00 | 0.00 | 86 | 1014.9 |
| 20260505033104 | 60 | 271 | 7.0 | 15.0 | 0.00 | 0.00 | 0.00 | 85 | 1014.9 |
| 20260505031606 | 60 | 306 | 7.0 | 13.0 | 0.00 | 0.00 | 0.00 | 85 | 1014.8 |
| 20260505030103 | 61 | 252 | 6.0 | 12.0 | 0.00 | 0.00 | 0.00 | 82 | 1014.7 |
| 20260505024604 | 61 | 281 | 9.0 | 16.0 | 0.00 | 0.00 | 0.00 | 81 | 1014.7 |
| 20260505023054 | 61 | 257 | 9.0 | 15.0 | 0.00 | 0.00 | 0.00 | 82 | 1014.6 |
| 20260505021555 | 62 | 277 | 9.0 | 15.0 | 0.00 | 0.00 | 0.00 | 82 | 1014.6 |
| 20260505020052 | 62 | 273 | 9.0 | 15.0 | 0.00 | 0.00 | 0.00 | 80 | 1014.5 |
| 20260505014605 | 62 | 268 | 8.0 | 19.0 | 0.00 | 0.00 | 0.00 | 79 | 1014.5 |
| 20260505013052 | 63 | 250 | 9.0 | 22.0 | 0.00 | 0.00 | 0.00 | 79 | 1014.7 |
| 20260505011557 | 64 | 275 | 8.0 | 17.0 | 0.00 | 0.00 | 0.00 | 77 | 1014.7 |
| 20260505010048 | 64 | 287 | 10.0 | 16.0 | 0.00 | 0.00 | 0.00 | 75 | 1014.7 |
| 20260505004548 | 65 | 259 | 7.0 | 15.0 | 0.00 | 0.00 | 0.00 | 74 | 1014.8 |
| 20260505003046 | 65 | 267 | 9.0 | 17.0 | 0.00 | 0.00 | 0.00 | 74 | 1014.8 |
| 20260505001547 | 65 | 281 | 11.0 | 17.0 | 0.00 | 0.00 | 0.00 | 74 | 1014.9 |
| 20260505000057 | 65 | 292 | 9.0 | 15.0 | 0.00 | 0.00 | 0.00 | 74 | 1014.9 |
| 20260504234549 | 66 | 267 | 11.0 | 17.0 | 0.00 | 0.00 | 0.00 | 73 | 1014.7 |
| 20260504233103 | 66 | 263 | 9.0 | 20.0 | 0.00 | 0.00 | 0.00 | 72 | 1014.7 |
| 20260504231544 | 67 | 263 | 11.0 | 17.0 | 0.00 | 0.00 | 0.00 | 70 | 1014.7 |
| 20260504230042 | 68 | 258 | 8.0 | 19.0 | 0.00 | 0.00 | 0.00 | 70 | 1014.7 |
| 20260504224543 | 68 | 240 | 11.0 | 19.0 | 0.00 | 0.00 | 0.00 | 70 | 1015.0 |
| 20260504223056 | 68 | 260 | 10.0 | 18.0 | 0.00 | 0.00 | 0.00 | 71 | 1015.1 |
| 20260504221540 | 67 | 278 | 12.0 | 19.0 | 0.00 | 0.00 | 0.00 | 71 | 1015.2 |
| 20260504220039 | 68 | 261 | 11.0 | 19.0 | 0.00 | 0.00 | 0.00 | 71 | 1015.3 |
| 20260504214539 | 69 | 245 | 10.0 | 18.0 | 0.00 | 0.00 | 0.00 | 71 | 1015.5 |
| 20260504213050 | 68 | 279 | 9.0 | 19.0 | 0.00 | 0.00 | 0.00 | 72 | 1015.6 |
| 20260504211537 | 69 | 254 | 7.0 | 17.0 | 0.00 | 0.00 | 0.00 | 71 | 1015.8 |
| 20260504210039 | 69 | 254 | 7.0 | 15.0 | 0.00 | 0.00 | 0.00 | 70 | 1015.8 |
| 20260504204543 | 70 | 223 | 6.0 | 12.0 | 0.00 | 0.00 | 0.00 | 70 | 1015.8 |
| 20260504203040 | 69 | 249 | 4.0 | 13.0 | 0.00 | 0.00 | 0.00 | 70 | 1015.9 |
| 20260504201532 | 69 | 263 | 7.0 | 14.0 | 0.00 | 0.00 | 0.00 | 69 | 1015.8 |
| 20260504200033 | 69 | 251 | 6.0 | 13.0 | 0.00 | 0.00 | 0.00 | 70 | 1015.9 |
| 20260504194530 | 69 | 265 | 6.0 | 14.0 | 0.00 | 0.00 | 0.00 | 70 | 1016.1 |
| 20260504193030 | 69 | 257 | 3.0 | 10.0 | 0.00 | 0.00 | 0.00 | 69 | 1016.2 |
| 20260504191528 | 69 | 246 | 7.0 | 13.0 | 0.00 | 0.00 | 0.00 | 69 | 1016.2 |
| 20260504190028 | 69 | 221 | 6.0 | 11.0 | 0.00 | 0.00 | 0.00 | 69 | 1016.2 |
| 20260504184524 | 68 | 213 | 5.0 | 12.0 | 0.00 | 0.00 | 0.00 | 69 | 1016.3 |
| 20260504183023 | 68 | 279 | 7.0 | 16.0 | 0.00 | 0.00 | 0.00 | 68 | 1016.2 |
| 20260504181522 | 68 | 229 | 6.0 | 10.0 | 0.00 | 0.00 | 0.00 | 69 | 1016.3 |
| 20260504180022 | 68 | 215 | 3.0 | 12.0 | 0.00 | 0.00 | 0.00 | 69 | 1016.3 |
| 20260504174519 | 68 | 206 | 2.0 | 9.0 | 0.00 | 0.00 | 0.00 | 70 | 1016.3 |
| 20260504173016 | 67 | 279 | 2.0 | 8.0 | 0.00 | 0.00 | 0.00 | 68 | 1016.0 |
| 20260504171513 | 66 | 267 | 4.0 | 10.0 | 0.00 | 0.00 | 0.00 | 70 | 1015.9 |
| 20260504150108 | 63 | 284 | 0.0 | 3.0 | 0.00 | 0.00 | 0.00 | 72 | 1015.3 |